#timestamp,LO_Frequency,Hit,StdDev 
1526839215.3,286047000.6,N
1526839235.2,286047001.0,N
1526839255.0,286046998.7,N
1526839255.9,286046998.7,N
1526839275.7,286046998.2,N
1526839295.6,286046998.6,N
1526839315.4,286046998.5,N
1526839335.3,286046998.9,N
1526839355.1,286046999.0,N
1526839356.0,286046999.0,N
1526839375.8,286047001.0,N
1526839395.7,286047001.2,N
1526839415.5,286046998.9,N
1526839435.3,286046998.1,N
1526839455.2,286047000.4,N
1526839475.0,286047000.2,N
1526839475.9,286047000.2,N
1526839495.8,286047000.9,N
1526839515.6,286047000.8,N
1526839535.4,286046998.7,N
1526839555.3,286046998.9,N
1526839575.1,286046998.8,N
1526839595.9,286046999.5,N
1526839615.7,286046998.8,N
1526839635.5,286046998.4,N
1526839655.4,286046999.8,N
1526839675.2,286047000.9,N
1526839695.0,286047000.1,N
1526839695.9,286047000.1,N
1526839715.8,286047002.3,N
1526839735.6,286046999.8,N
1526839755.5,286047001.7,N
1526839775.3,286047001.4,N
1526839795.1,286047002.2,N
1526839815.9,286047002.0,N
1526839835.7,286047001.5,N
1526839855.5,286047003.7,N
1526839875.4,286047005.6,Y
1526839895.2,286047005.8,P
1526839915.1,286047005.1,N
1526839916.0,286047005.1,N
1526839935.8,286047003.6,N
1526839955.6,286047001.8,N
1526839975.5,286047001.5,N
1526839995.3,286047004.3,N
1526840015.1,286047001.5,N
1526840035.9,286047001.9,N
1526840055.7,286047002.1,N
1526840075.6,286047003.5,N
1526840095.4,286047003.9,N
1526840115.2,286047003.8,N
1526840135.1,286047006.0,Y
1526840136.0,286047006.0,P
1526840155.8,286047000.9,N
1526840175.7,286047001.0,N
1526840195.5,286047002.8,N
1526840215.3,286046998.3,N
1526840235.2,286046999.4,N
1526840255.9,286046999.1,N
1526840275.7,286046998.5,N
1526840295.6,286047000.9,N
1526840315.4,286046998.1,N
1526840335.3,286046999.3,N
1526840355.1,286046996.6,N
1526840356.0,286046996.6,N
1526840375.8,286046996.9,N
1526840395.7,286046999.1,N
1526840415.5,286047001.1,N
1526840435.3,286046998.3,N
1526840455.2,286046999.3,N
1526840475.0,286046999.4,N
1526840475.9,286046999.4,N
1526840495.8,286046999.1,N
1526840515.6,286046996.7,N
1526840535.4,286046998.9,N
1526840555.3,286047000.9,N
1526840575.1,286046998.4,N
1526840595.9,286047000.8,N
1526840615.7,286046999.1,N
1526840635.5,286046996.6,N
1526840655.4,286046999.6,N
1526840675.2,286046997.8,N
1526840695.0,286046997.7,N
1526840695.9,286046997.7,N
1526840715.8,286046995.2,Y
1526840735.6,286046997.8,P
1526840755.5,286046996.7,P
1526840775.3,286046995.3,P
1526840795.1,286046997.8,N
1526840815.9,286046996.8,N
1526840835.7,286046998.5,N
1526840855.5,286046998.9,N
1526840875.4,286046998.3,N
1526840895.2,286046998.8,N
1526840915.1,286046998.7,N
1526840916.0,286046998.7,N
1526840935.8,286046999.3,N
1526840955.6,286046996.5,Y
1526840975.5,286046998.2,P
1526840995.3,286047001.1,P
1526841015.1,286046999.1,N
1526841035.9,286046999.4,N
1526841055.7,286046998.6,N
1526841075.6,286046999.7,N
1526841095.4,286047002.7,N
1526841115.2,286047000.9,N
1526841135.1,286046997.0,N
1526841136.0,286046997.0,N
1526841155.8,286046999.2,N
1526841175.6,286046999.4,N
1526841195.5,286046999.2,N
1526841215.3,286046996.9,N
1526841235.2,286046996.7,N
1526841255.9,286046999.0,N
1526841275.7,286046999.4,N
1526841295.6,286046998.6,N
1526841315.4,286046998.1,N
1526841335.2,286046999.1,N
1526841355.1,286046999.0,N
1526841356.0,286046999.0,N
1526841375.8,286046996.8,N
1526841395.7,286046995.3,Y
1526841415.5,286046996.8,P
1526841435.3,286046996.7,P
1526841455.2,286046996.7,P
1526841475.0,286046998.4,N
1526841475.9,286046998.4,N
1526841495.7,286046998.1,N
1526841515.6,286046996.5,Y
1526841535.4,286047000.1,P
1526841555.3,286047002.2,N
1526841575.1,286047002.3,N
1526841595.8,286047000.1,N
1526841615.7,286047000.2,N
1526841635.5,286047001.2,N
1526841655.4,286046998.6,N
1526841675.2,286047001.2,N
1526841695.0,286046998.5,N
1526841695.9,286046998.5,N
1526841715.8,286047000.8,N
1526841735.6,286047001.0,N
1526841755.4,286047001.0,N
1526841775.3,286047000.7,N
1526841795.1,286047001.1,N
1526841815.9,286046998.7,N
1526841835.7,286047000.8,N
1526841855.5,286046999.9,N
1526841875.4,286047000.2,N
1526841895.2,286047000.9,N
1526841915.0,286047001.1,N
1526841915.9,286047001.1,N
1526841935.8,286047000.3,N
1526841955.6,286047000.3,N
1526841975.5,286047000.1,N
1526841995.3,286047001.4,N
1526842015.1,286047002.4,N
1526842035.9,286047001.1,N
1526842055.7,286046998.8,N
1526842075.5,286046999.2,N
1526842095.4,286046997.1,N
1526842115.2,286046997.5,N
1526842135.1,286046997.3,N
1526842136.0,286046997.3,N
1526842155.8,286046999.1,N
1526842175.6,286046997.3,N
1526842195.5,286046997.2,N
1526842215.3,286046995.4,Y
1526842235.1,286046995.0,P
1526842255.9,286046995.1,N
1526842275.7,286046995.4,N
1526842295.6,286046995.5,N
1526842315.4,286046994.0,Y
1526842335.2,286046997.0,P
1526842355.1,286046998.5,P
1526842356.0,286046998.5,N
1526842375.8,286047001.0,N
1526842395.7,286047000.0,N
1526842415.5,286047001.6,N
1526842435.3,286047001.5,N
1526842455.2,286047002.0,N
1526842475.0,286047002.0,N
1526842475.9,286047002.0,N
1526842495.7,286047002.0,N
1526842515.6,286047002.5,N
1526842535.4,286047002.0,N
1526842555.3,286047001.6,N
1526842575.1,286047003.7,N
1526842576.0,286047003.7,N
1526842595.8,286047007.1,Y
1526842615.7,286047004.3,P
1526842635.5,286047002.7,N
1526842655.4,286046999.7,N
1526842675.2,286046998.2,N
1526842695.0,286046999.4,N
1526842695.9,286046999.4,N
1526842715.8,286046998.6,N
1526842735.6,286047006.5,Y
1526842755.5,286047007.9,P
1526842775.3,286047006.4,N
1526842795.1,286047006.0,N
